Content
SEND FEEDBACK

Daily
Averages
Monthly
Summary
India

TRIVANDRUM, INDIA


Home > Asia > India
Elevation: 205 feet     Latitude: 08 29N     Longitude: 076 57E

WEATHER
 
SELECT A DAY
Number of Records: 112,140;   Date Range: 7/1/96 - 7/20/14
 
SHARE

PRINT THIS DATA

[ ← Previous Day ]
WEATHER ALMANAC - OCTOBER 5, 2013
[ Next Day → ]
[ °C ]   °F
Weather ElementAverageHighLow
Temperature82.1 °F87.8 °F (10:10 am)75.2 °F (4:40 am)
Dewpoint74.2 °F75.2 °F (10:10 am)73.4 °F (2:10 am)
Humidity77.7 %94 % (4:40 am)66 % (9:40 am)
Barometer29.84 in29.89 in (8:40 am)29.77 in (2:40 pm)
Wind Speed5.3 mph9.2 mph (3:10 pm)
Weather ElementAverage
Visibility3 mi
Wind DirectionWNW (288.8 °)

Weather ElementTotal
Precipitation---
Cooling Degree Days16.5 (Base 65)
Growing Degree Days31.5 (Base 50)
Averaged from 40 records on October 5, 2013
WEATHER CONDITIONS BREAKOUT
WIND DIRECTION BREAKOUT
WEATHER BY HOUR - OCTOBER 5, 2013
[ °C ]   °F
Local TimeTemperatureDewpointHumidityBarometerVisibilityWind DirectionWind SpeedGust SpeedPrecipitationEventsConditions
2:10 AM77.0 °F73.4 °F89 %29.83 in2.5 miCalmHaze
2:40 AM77.0 °F73.4 °F89 %29.83 in2.5 miNW (320°)3.5 mphHaze
3:10 AM77.0 °F73.4 °F89 %29.83 in2.5 miNNW (330°)3.5 mphHaze
4:10 AM77.0 °F73.4 °F89 %29.83 in1.9 miNNW (340°)2.3 mphHaze
4:40 AM75.2 °F73.4 °F94 %29.83 in1.9 miNorth (350°)3.5 mphHaze
5:10 AM75.2 °F73.4 °F94 %29.83 in1.9 miNorth (350°)3.5 mphHaze
5:40 AM75.2 °F73.4 °F94 %29.83 in1.9 miNNW (330°)3.5 mphHaze
6:10 AM75.2 °F73.4 °F94 %29.83 in1.9 miNNW (340°)3.5 mphHaze
6:40 AM75.2 °F73.4 °F94 %29.86 in1.9 miNNW (340°)2.3 mphHaze
7:10 AM77.0 °F73.4 °F89 %29.86 in1.9 miNorth (10°)3.5 mphHaze
7:40 AM78.8 °F73.4 °F83 %29.86 in2.5 miNorth (350°)4.6 mphHaze
8:40 AM82.4 °F73.4 °F74 %29.89 in3.7 miNNW (340°)6.9 mphPartly Cloudy
9:10 AM84.2 °F73.4 °F70 %29.89 in3.7 miNW (320°)5.8 mphPartly Cloudy
9:40 AM86.0 °F73.4 °F66 %29.89 in3.7 miNNW (330°)6.9 mphPartly Cloudy
10:10 AM87.8 °F75.2 °F66 %29.89 in3.7 miWNW (300°)8.1 mphPartly Cloudy
10:40 AM87.8 °F75.2 °F66 %29.89 in3.7 miWest (270°)6.9 mphPartly Cloudy
11:10 AM87.8 °F75.2 °F66 %29.86 in3.7 miWest (280°)8.1 mphPartly Cloudy
11:40 AM87.8 °F75.2 °F66 %29.86 in3.7 miWest (270°)8.1 mphPartly Cloudy
12:10 PM87.8 °F75.2 °F66 %29.83 in3.7 miWest (280°)8.1 mphPartly Cloudy
12:40 PM87.8 °F75.2 °F66 %29.83 in3.7 miWest (280°)8.1 mphPartly Cloudy
1:10 PM87.8 °F75.2 °F66 %29.83 in3.7 miWNW (290°)8.1 mphPartly Cloudy
1:40 PM87.8 °F75.2 °F66 %29.80 in3.7 miWest (270°)6.9 mphPartly Cloudy
2:10 PM87.8 °F75.2 °F66 %29.80 in3.7 miWNW (290°)8.1 mphPartly Cloudy
2:40 PM86.0 °F75.2 °F70 %29.77 in3.7 miWest (280°)8.1 mphPartly Cloudy
3:10 PM86.0 °F75.2 °F70 %29.77 in3.7 miWest (280°)9.2 mphPartly Cloudy
3:40 PM86.0 °F75.2 °F70 %29.77 in3.7 miWest (270°)8.1 mphPartly Cloudy
4:10 PM86.0 °F75.2 °F70 %29.77 in3.7 miWest (270°)6.9 mphPartly Cloudy
4:40 PM86.0 °F75.2 °F70 %29.80 in3.7 miWNW (290°)6.9 mphPartly Cloudy
5:10 PM84.2 °F75.2 °F74 %29.80 in3.7 miWest (280°)5.8 mphPartly Cloudy
6:10 PM82.4 °F75.2 °F79 %29.80 in3.7 miWNW (290°)4.6 mphPartly Cloudy
7:10 PM82.4 °F75.2 °F79 %29.83 in3.1 miNW (320°)5.8 mphHaze
7:40 PM82.4 °F75.2 °F79 %29.86 in3.1 miNW (310°)4.6 mphHaze
8:10 PM80.6 °F73.4 °F79 %29.86 in3.1 miWNW (300°)3.5 mphHaze
8:40 PM80.6 °F73.4 °F79 %29.86 in3.1 miNW (310°)4.6 mphHaze
9:10 PM80.6 °F73.4 °F79 %29.89 in3.1 miNNW (340°)4.6 mphHaze
9:40 PM80.6 °F73.4 °F79 %29.89 in2.5 miNorth (10°)4.6 mphHaze
10:10 PM80.6 °F73.4 °F79 %29.89 in2.5 miNorth (350°)3.5 mphHaze
10:40 PM78.8 °F73.4 °F83 %29.89 in2.5 miNorth (350°)3.5 mphHaze
11:10 PM78.8 °F73.4 °F83 %29.89 in2.5 miNorth (360°)3.5 mphHaze
11:40 PM78.8 °F73.4 °F83 %29.86 in2.5 miNorth (360°)2.3 mphHaze
Hourly data recorded from VOTV, located miles away from Trivandrum, India







STORIES FROM OUR PARTNERS